Weather Roundup
Issued by NWS Chicago, IL

Home | Current Version | Previous Version | Graphics & Text | Print | Product List | Glossary On
Versions: 1 2 3 4 5 6 7 8 9 10 11 12 13 14 15 16 17 18 19 20 21 22 23 24 25 26 27 28 29 30 31 32 33 34 35 36 37 38 39 40 41 42 43 44 45 46 47 48 49 50
000
NZUS59 KLOT 262310
HRRLOT

CHICAGO AREA WEATHER ROUNDUP
NATIONAL WEATHER SERVICE CHICAGO/ROMEOVILLE IL
500 PM CST MON JAN 26 2015

NOTE: "FAIR" INDICATES FEW OR NO CLOUDS BELOW 12,000 FEET WITH NO
SIGNIFICANT WEATHER AND/OR OBSTRUCTIONS TO VISIBILITY.

* THESE STATIONS ARE NOT UNDER NWS QUALITY CONTROL. THEY ALSO MAY NOT
  REPORT WEATHER SUCH AS PRECIPITATION OR FOG.

ILZ005-006-012>014-019>023-270000-
NORTHEAST ILLINOIS

CITY           SKY/WX    TMP DP  RH WIND       PRES   REMARKS
OHARE          LGT SNOW  25  21  85 S6        29.87R FOG     WCI  18
MIDWAY         LGT SNOW  28  21  75 S6        29.88R WCI  22
AURORA         CLOUDY    26  22  84 SE8       29.88R FOG     WCI  18
LANSING*       CLOUDY    27  22  83 SE5       29.89S WCI  21
JOLIET*        DRIZZLE   25  23  91 CALM      29.90R
WAUKEGAN       LGT SNOW  25  22  88 S5        29.87R FOG     WCI  19
DUPAGE AIRPORT CLOUDY    25  23  92 S7        29.87R FOG     WCI  17
WHEELING       CLOUDY    26  21  81 S5        29.89S WCI  20
KANKAKEE*      MIX PCPN  27  24  87 S6        29.90R WCI  20
MORRIS*        MIX PCPN  27  26  97 SE7       29.88R WCI  19
LEWIS AIRPORT* MIX PCPN  26  24  93 S6        29.90R WCI  19
NORTHERLY IS     N/A     27  21  78 S5          N/A  WCI  22
$$

WIZ051-052-058>065-066-070>072-270000-
SOUTHEAST WISCONSIN

CITY           SKY/WX    TMP DP  RH WIND       PRES   REMARKS
MILWAUKEE      FLURRIES  26  19  74 S9        29.87R WCI  17
KENOSHA*       FLURRIES  26  21  81 S9        29.87R WCI  17
RACINE*        FLURRIES  26  19  74 S7        29.89R WCI  18
BURLINGTON     LGT SNOW  23  21  91 S6        29.86R WCI  16
WAUKESHA       CLOUDY    23  19  86 SE7       29.86R WCI  15
WEST BEND      LGT SNOW  25  21  86 CALM      29.85R
$$

INZ001>003-010>013-019-020-270000-
NORTHWEST INDIANA

CITY           SKY/WX    TMP DP  RH WIND       PRES   REMARKS
GARY*          CLOUDY    28  18  64 SE5       29.89R WCI  23
MICHIGAN CITY* NOT AVBL
RENSSELAER*    NOT AVBL
VALPARAISO     MOCLDY    23  17  78 SE6       29.89R WCI  16
$$

LMZ740>746-270000-
SOUTHERN LAKE MICHIGAN

STATION/POSITION TIME  SKY/WX   TEMP WIND        PRES    VSBY
                                AIR  DIR/SP/G
                 (UTC)          (F)  (DEG/KT/KT) (MB)    (MI)
HARRISON CRIB    2300            26  160/  9/ 11   N/A
BURNHAM HARBOR   2300            27  180/  5/  8   N/A
CALUMET HARBOR   2300            27  170/  6/  8   N/A
BURNS HARBOR     NOT AVBL
MICHIGAN CITY    2300            24  150/  8/ 10   N/A
$$

ABBREVIATIONS USED IN REMARKS
   TC - TEMPERATURE IN CELSIUS
  WCI - WIND CHILL INDEX
   HX - HEAT INDEX
  VSB - VISIBILITY
$$


USA.gov is the U.S. government's official web portal to all federal, state and local government web resources and services.